Tracking 23762 objects as of 19-Oct-2021
HD Live streaming from Space Station
objects crossing your sky now

CZ-3C DEB

Track CZ-3C DEB now!


NORAD ID: 40818
Int'l Code: 2010-057AK
Perigee: 706.6 km
Apogee: 35,651.1 km
Inclination: 20.7 °
Period: 638.0 minutes
Semi major axis: 24549 km
RCS: Unknown
Launch date: October 31, 2010
Source: People's Republic of China (PRC)
Launch site: Xichang Space Center, China (XSC)

Note: This is SATELLITE DEBRIS
aabbcc
Your satellite tracking list
Your tracking list is empty




NASA's NSSDC Master Catalog

Two Line Element Set (TLE):
1 40818U 10057AK  21291.25778842  .00000015  00000-0  14490-2 0  9998
2 40818  20.6839 328.9038 7117042 174.3667 203.1973  2.25698994 54514
Source of the keplerian elements: AFSPC